Lid_Strength_Index
-0 0 2 4 10 11 14 12 9 10 9 6 5 7 7 7 8 12 2 1 0 0 -0 -0 -1 -1 -1 -1 -1 -1 -1 -1 -1 -1 -1 -2 -2 -1 -1 -1 -1 -2 -1 -1 -2 -2 -2 -2 -2
0 1 4 7 13 16 14 10 11 9 6 5 5 6 7 8 5 4 3 1 0 -0 -0 -0 -1 -1 -1 -1 -1 -1 -1 -1 -1 -1 -1 -1 -1 -2 -1 -1 -2 -1 -1 -1 -2 -2 -2 -2 -2
0 3 7 9 13 15 13 10 9 7 6 6 6 5 6 7 4 4 1 0 0 0 -0 -0 -1 -1 -1 -1 -1 -1 -1 -1 -1 -1 -2 -1 -1 -1 -1 -1 -2 -1 -1 -2 -2 -2 -2 -2 -2
6 5 7 11 13 11 10 9 8 8 6 5 5 7 5 3 3 2 1 0 0 0 -0 -1 -1 -1 -1 -1 -1 -1 -1 -1 -1 -1 -1 -1 -1 -1 -1 -1 -2 -2 -1 -1 -1 -2 -2 -2 -2
6 8 11 14 12 10 9 7 7 8 7 6 5 8 7 3 1 1 1 0 1 0 -0 -0 -1 -1 -1 -1 -2 -1 -1 -1 -1 -1 -1 -1 -1 -1 -1 -1 -1 -2 -1 -1 -1 -1 -2 -2 -3
9 9 13 14 12 10 8 8 7 7 6 6 7 7 7 2 2 2 1 1 0 0 -0 -0 -1 -1 -1 -1 -1 -1 -1 -1 -1 -1 -1 -1 -1 -1 -1 -2 -2 -1 -2 -1 -1 -2 -2 -2 -2
9 11 13 13 13 10 9 7 8 8 7 7 5 8 6 4 2 2 1 0 0 0 0 -0 -0 -1 -1 -1 -1 -1 -1 -1 -1 -1 -1 -1 -1 -1 -2 -2 -2 -2 -2 -2 -2 -2 -2 -2 -2
10 12 14 13 13 11 9 10 8 7 7 4 4 9 9 4 2 1 1 1 1 0 0 0 -0 -0 -0 -0 -1 -1 -1 -1 -1 -1 -1 -1 -1 -2 -2 -2 -2 -2 -2 -2 -2 -2 -2 -2 -2
10 14 15 14 13 11 10 11 11 4 6 5 4 5 4 2 2 2 2 2 2 1 1 0 1 0 -0 -0 -1 -1 -1 -1 -1 -1 -1 -1 0 -0 -1 -2 -2 -2 -2 -2 -2 -2 -2 -2 -2
12 14 13 11 11 12 10 12 12 7 7 7 6 4 3 3 3 4 4 4 3 2 1 1 1 0 -0 -0 0 0 -0 0 0 0 0 0 0 0 -1 -1 -2 -2 -2 -2 -2 -2 -2 -2 -0
11 13 12 10 9 10 11 12 12 7 9 7 7 6 4 4 4 4 4 3 3 2 1 1 1 1 0 0 0 0 1 0 0 0 1 1 0 0 0 0 0 0 -1 -0 -1 -1 -0 0 0
11 10 9 8 7 10 11 11 10 9 7 5 4 4 4 4 4 4 4 3 3 2 1 1 1 1 1 0 -0 -0 0 0 0 0 0 1 1 1 0 0 0 0 0 1 0 0 0 1 -0
12 10 9 8 8 10 10 11 11 8 5 4 4 4 4 4 4 3 3 2 2 2 1 1 1 1 1 0 0 -0 0 0 0 0 0 0 0 1 1 0 0 0 1 0 0 0 0 1 0
11 11 10 10 9 10 11 12 9 7 5 5 5 5 4 4 4 3 3 3 3 2 2 1 1 1 1 1 1 0 0 0 0 0 0 0 1 0 1 1 1 0 1 1 1 0 0 0 1
11 13 12 12 11 11 11 13 10 7 5 6 6 5 5 4 4 4 3 3 2 2 2 1 1 1 1 1 1 1 0 -0 0 0 0 0 0 0 1 1 2 1 1 2 2 1 0 1 2
13 14 16 13 12 11 11 16 9 6 7 7 6 6 5 5 4 3 3 3 3 3 3 2 1 1 1 1 1 0 0 0 -0 0 0 0 0 0 0 1 2 1 2 2 2 2 1 2 2
14 16 15 13 12 12 12 12 9 7 7 8 7 6 6 5 4 3 2 2 2 3 3 3 2 2 1 2 2 1 0 1 0 0 0 0 -0 -0 0 1 1 2 2 2 2 2 2 2 2
16 15 15 14 13 13 11 11 9 8 7 8 7 7 6 6 5 4 3 3 3 2 2 3 3 2 2 2 2 2 2 2 1 1 1 0 0 -0 0 1 1 2 2 2 2 2 3 2 2
13 14 14 12 11 13 10 11 10 8 8 8 8 7 7 6 5 5 4 4 4 4 4 3 2 3 2 1 2 2 3 2 1 1 2 1 0 0 1 1 1 2 2 2 2 3 3 2 1
12 13 13 12 10 10 10 12 10 9 9 8 8 8 7 7 6 6 6 5 5 5 4 4 4 4 2 1 1 1 1 1 1 3 3 2 2 2 2 2 2 2 2 2 2 2 2 1 2
13 15 14 14 11 9 10 13 12 9 8 8 8 7 7 7 8 7 7 7 7 7 6 5 5 5 4 3 3 2 2 2 2 3 3 2 2 2 2 3 3 3 3 3 3 2 3 3 1
15 12 13 13 14 15 12 18 14 11 10 9 8 7 7 7 6 6 5 6 6 7 7 8 7 7 6 5 5 4 3 4 3 3 3 3 2 3 2 2 2 2 3 3 3 1 2 2 3
14 12 13 13 16 17 16 16 15 11 12 11 10 8 7 7 6 5 5 5 6 7 8 8 8 8 8 7 6 6 6 7 5 5 6 5 4 5 4 2 2 2 2 3 3 2 2 2 2
11 13 15 16 16 19 17 18 19 14 12 10 10 8 7 7 6 5 4 5 6 6 7 8 9 10 9 8 8 8 8 9 9 8 8 7 7 7 6 5 5 2 2 3 3 3 1 2 2
14 15 18 19 19 21 16 18 16 10 9 9 9 8 7 7 6 6 6 6 5 5 5 6 7 8 8 8 8 8 8 8 9 9 8 8 7 7 7 6 6 6 5 4 2 2 2 2 2
15 15 18 20 20 17 14 16 13 9 8 7 8 8 7 7 6 6 6 6 5 6 6 6 6 6 5 5 5 5 5 5 5 4 4 4 5 5 6 5 5 4 5 6 6 5 4 4 4
14 16 15 18 18 18 17 13 11 9 9 8 8 8 8 7 6 6 5 5 6 6 6 6 6 5 5 6 6 6 6 6 6 7 6 4 7 6 7 7 6 6 5 5 5 5 6 6 5
13 13 17 18 20 20 17 16 15 13 11 9 8 8 8 7 6 6 6 5 4 4 5 5 5 5 4 4 5 5 6 6 7 7 7 6 8 7 7 7 7 6 6 6 6 5 5 6 6
14 16 16 16 17 19 19 17 13 11 10 9 8 8 8 7 6 6 5 5 5 4 4 5 5 4 3 3 3 3 6 6 7 7 7 7 8 7 7 7 7 7 7 5 6 7 6 6 5
13 14 14 17 17 17 17 16 10 9 8 8 8 7 7 7 6 6 5 5 5 5 5 5 4 4 5 4 4 6 6 5 6 7 7 7 7 7 7 7 7 7 7 6 5 5 5 5 5